Time,TemperatureF,DewpointF,PressureIn,WindDirection,WindDirectionDegrees,WindSpeedMPH,WindSpeedGustMPH,Humidity,HourlyPrecipIn,Conditions,Clouds,dailyrainin,SolarRadiationWatts/m^2,SoftwareType,DateUTC
2013-03-17 00:02:00,55.3,51.5,29.95,South,170,3.5,3.5,87,0.00,CLR,,0.00,0.0,WeatherDisplay:10.37,2013-03-17 07:02:00,
2013-03-17 00:07:00,55.3,51.5,29.95,South,175,3.5,3.5,87,0.00,CLR,,0.00,0.0,WeatherDisplay:10.37,2013-03-17 07:07:00,
2013-03-17 00:12:00,55.3,51.5,29.95,South,188,4.0,4.0,87,0.00,CLR,,0.00,0.0,WeatherDisplay:10.37,2013-03-17 07:12:00,
2013-03-17 00:17:00,55.3,51.5,29.95,SSW,196,3.5,3.5,87,0.00,CLR,,0.00,0.0,WeatherDisplay:10.37,2013-03-17 07:17:00,
2013-03-17 00:22:00,55.3,51.5,29.95,South,169,3.5,3.5,87,0.00,CLR,,0.00,0.0,WeatherDisplay:10.37,2013-03-17 07:22:00,
2013-03-17 00:27:00,55.3,51.5,29.95,SSW,192,3.5,3.5,87,0.00,CLR,,0.00,0.0,WeatherDisplay:10.37,2013-03-17 07:27:00,
2013-03-17 00:32:00,55.3,51.5,29.95,SSE,163,5.0,5.0,87,0.00,CLR,,0.00,0.0,WeatherDisplay:10.37,2013-03-17 07:32:00,
2013-03-17 00:37:00,55.3,51.5,29.95,SSE,163,0.0,0.0,87,0.00,CLR,,0.00,0.0,WeatherDisplay:10.37,2013-03-17 07:37:00,
2013-03-17 00:42:00,55.3,51.5,29.95,SSE,163,0.0,0.0,87,0.00,CLR,,0.00,0.0,WeatherDisplay:10.37,2013-03-17 07:42:00,
2013-03-17 00:47:00,55.4,51.6,29.95,SSW,205,6.0,6.0,87,0.00,CLR,,0.00,0.0,WeatherDisplay:10.37,2013-03-17 07:47:00,
2013-03-17 00:52:00,55.4,51.6,29.95,SSW,206,5.8,5.8,87,0.00,CLR,,0.00,0.0,WeatherDisplay:10.37,2013-03-17 07:52:00,
2013-03-17 00:57:00,55.2,51.4,29.96,SSW,199,4.6,4.6,87,0.00,CLR,,0.00,0.0,WeatherDisplay:10.37,2013-03-17 07:57:00,
2013-03-17 01:02:00,55.2,51.4,29.96,SSW,202,3.5,3.5,87,0.00,CLR,,0.00,0.0,WeatherDisplay:10.37,2013-03-17 08:02:00,
2013-03-17 01:07:00,55.2,51.7,29.96,SSW,201,3.5,3.5,88,0.00,CLR,,0.00,0.0,WeatherDisplay:10.37,2013-03-17 08:07:00,
2013-03-17 01:12:00,55.2,51.7,29.96,South,180,4.6,4.6,88,0.00,CLR,,0.00,0.0,WeatherDisplay:10.37,2013-03-17 08:12:00,
2013-03-17 01:17:00,55.2,51.7,29.97,SSW,203,6.0,6.0,88,0.00,CLR,,0.00,0.0,WeatherDisplay:10.37,2013-03-17 08:17:00,
2013-03-17 01:22:00,55.3,51.5,29.96,South,169,4.6,4.6,87,0.00,CLR,,0.00,0.0,WeatherDisplay:10.37,2013-03-17 08:22:00,
2013-03-17 01:27:00,55.2,51.4,29.96,South,171,3.5,3.5,87,0.00,CLR,,0.00,0.0,WeatherDisplay:10.37,2013-03-17 08:27:00,
2013-03-17 01:32:00,55.1,51.3,29.96,SSW,198,5.8,5.8,87,0.00,CLR,,0.00,0.0,WeatherDisplay:10.37,2013-03-17 08:32:00,
2013-03-17 01:37:00,55.0,51.5,29.96,South,173,4.0,4.0,88,0.00,CLR,,0.00,0.0,WeatherDisplay:10.37,2013-03-17 08:37:00,
2013-03-17 01:42:00,55.0,51.2,29.96,SSW,204,5.0,5.0,87,0.00,CLR,,0.00,0.0,WeatherDisplay:10.37,2013-03-17 08:42:00,
2013-03-17 01:47:00,54.8,51.0,29.97,SSW,204,0.0,0.0,87,0.00,CLR,,0.00,0.0,WeatherDisplay:10.37,2013-03-17 08:47:00,
2013-03-17 01:52:00,54.8,51.3,29.96,South,178,3.5,3.5,88,0.00,CLR,,0.00,0.0,WeatherDisplay:10.37,2013-03-17 08:52:00,
2013-03-17 01:58:00,54.8,51.3,29.97,South,178,2.3,0.0,88,0.00,CLR,,0.00,0.0,WeatherDisplay:10.37,2013-03-17 08:58:00,
2013-03-17 02:03:00,54.8,51.3,29.96,SSW,192,4.0,4.0,88,0.00,CLR,,0.00,0.0,WeatherDisplay:10.37,2013-03-17 09:03:00,
2013-03-17 02:08:00,54.8,51.0,29.97,South,191,4.0,4.0,87,0.00,CLR,,0.00,0.0,WeatherDisplay:10.37,2013-03-17 09:08:00,
2013-03-17 02:13:00,54.8,51.0,29.97,SSW,193,4.6,4.6,87,0.00,CLR,,0.00,0.0,WeatherDisplay:10.37,2013-03-17 09:13:00,
2013-03-17 02:18:00,54.8,51.0,29.97,SSW,204,4.6,4.6,87,0.00,CLR,,0.00,0.0,WeatherDisplay:10.37,2013-03-17 09:18:00,
2013-03-17 02:23:00,54.8,51.3,29.97,SSW,193,6.0,6.0,88,0.00,CLR,,0.00,0.0,WeatherDisplay:10.37,2013-03-17 09:23:00,
2013-03-17 02:28:00,54.7,50.9,29.97,SSW,207,6.9,6.9,87,0.00,CLR,,0.00,0.0,WeatherDisplay:10.37,2013-03-17 09:28:00,
2013-03-17 02:33:00,54.7,50.9,29.97,South,185,4.6,4.6,87,0.00,CLR,,0.00,0.0,WeatherDisplay:10.37,2013-03-17 09:33:00,
2013-03-17 02:38:00,54.6,50.8,29.97,SSW,204,5.8,5.8,87,0.00,CLR,,0.00,0.0,WeatherDisplay:10.37,2013-03-17 09:38:00,
2013-03-17 02:43:00,54.6,50.8,29.96,SSW,205,4.6,4.6,87,0.00,CLR,,0.00,0.0,WeatherDisplay:10.37,2013-03-17 09:43:00,
2013-03-17 02:48:00,54.7,50.9,29.97,South,183,4.0,4.0,87,0.00,CLR,,0.00,0.0,WeatherDisplay:10.37,2013-03-17 09:48:00,
2013-03-17 02:53:00,54.6,50.8,29.97,South,180,3.5,3.5,87,0.00,CLR,,0.00,0.0,WeatherDisplay:10.37,2013-03-17 09:53:00,
2013-03-17 02:58:00,54.6,50.8,29.97,South,180,3.5,3.5,87,0.00,CLR,,0.00,0.0,WeatherDisplay:10.37,2013-03-17 09:58:00,
2013-03-17 03:03:00,54.6,50.8,29.97,South,180,3.5,3.5,87,0.00,CLR,,0.00,0.0,WeatherDisplay:10.37,2013-03-17 10:03:00,
2013-03-17 03:08:00,54.6,50.8,29.96,South,179,3.5,3.5,87,0.00,CLR,,0.00,0.0,WeatherDisplay:10.37,2013-03-17 10:08:00,
2013-03-17 03:13:00,54.7,50.9,29.96,South,179,2.3,2.3,87,0.00,CLR,,0.00,0.0,WeatherDisplay:10.37,2013-03-17 10:13:00,
2013-03-17 03:18:00,54.7,50.9,29.96,South,179,3.5,3.5,87,0.00,CLR,,0.00,0.0,WeatherDisplay:10.37,2013-03-17 10:18:00,
2013-03-17 03:23:00,54.8,51.0,29.95,South,178,3.5,3.5,87,0.00,CLR,,0.00,0.0,WeatherDisplay:10.37,2013-03-17 10:23:00,
2013-03-17 03:28:00,54.9,51.1,29.95,East,90,3.5,3.5,87,0.00,CLR,,0.00,0.0,WeatherDisplay:10.37,2013-03-17 10:28:00,
2013-03-17 03:33:00,54.8,51.0,29.95,East,100,3.5,3.5,87,0.00,CLR,,0.00,0.0,WeatherDisplay:10.37,2013-03-17 10:33:00,
2013-03-17 03:38:00,54.9,50.8,29.96,ESE,102,3.5,3.5,86,0.00,CLR,,0.00,0.0,WeatherDisplay:10.37,2013-03-17 10:38:00,
2013-03-17 03:43:00,54.9,51.1,29.95,SSE,163,5.8,5.8,87,0.00,CLR,,0.00,0.0,WeatherDisplay:10.37,2013-03-17 10:43:00,
2013-03-17 03:48:00,54.8,51.0,29.95,SE,144,4.6,4.6,87,0.00,CLR,,0.00,0.0,WeatherDisplay:10.37,2013-03-17 10:48:00,
2013-03-17 03:53:00,54.8,51.0,29.95,SE,136,3.5,3.5,87,0.00,CLR,,0.00,0.0,WeatherDisplay:10.37,2013-03-17 10:53:00,
2013-03-17 03:58:00,54.8,51.0,29.95,ESE,117,3.5,3.5,87,0.00,CLR,,0.00,0.0,WeatherDisplay:10.37,2013-03-17 10:58:00,
2013-03-17 04:03:00,54.8,51.0,29.95,SSE,162,5.8,5.8,87,0.00,CLR,,0.00,0.0,WeatherDisplay:10.37,2013-03-17 11:03:00,
2013-03-17 04:08:00,54.8,51.0,29.95,SE,125,3.5,3.5,87,0.00,CLR,,0.00,0.0,WeatherDisplay:10.37,2013-03-17 11:08:00,
2013-03-17 04:13:00,54.8,51.0,29.95,SE,140,3.5,3.5,87,0.00,CLR,,0.00,0.0,WeatherDisplay:10.37,2013-03-17 11:13:00,
2013-03-17 04:18:00,54.7,50.9,29.95,SE,132,4.6,4.6,87,0.00,CLR,,0.00,0.0,WeatherDisplay:10.37,2013-03-17 11:18:00,
2013-03-17 04:23:00,54.7,50.9,29.95,ESE,115,3.5,3.5,87,0.00,CLR,,0.00,0.0,WeatherDisplay:10.37,2013-03-17 11:23:00,
2013-03-17 04:28:00,54.7,50.9,29.94,ESE,123,3.5,3.5,87,0.00,CLR,,0.00,0.0,WeatherDisplay:10.37,2013-03-17 11:28:00,
2013-03-17 04:33:00,54.7,50.9,29.94,ESE,111,3.5,3.5,87,0.00,CLR,,0.00,0.0,WeatherDisplay:10.37,2013-03-17 11:33:00,
2013-03-17 04:38:00,54.7,50.9,29.94,SE,134,4.0,4.0,87,0.00,CLR,,0.00,0.0,WeatherDisplay:10.37,2013-03-17 11:38:00,
2013-03-17 04:43:00,54.7,50.9,29.95,SE,133,1.1,1.1,87,0.00,CLR,,0.00,0.0,WeatherDisplay:10.37,2013-03-17 11:43:00,
2013-03-17 04:48:00,54.8,51.0,29.94,SE,133,2.3,2.3,87,0.00,CLR,,0.00,0.0,WeatherDisplay:10.37,2013-03-17 11:48:00,
2013-03-17 04:53:00,54.8,51.0,29.95,SE,133,1.1,1.1,87,0.00,CLR,,0.00,0.0,WeatherDisplay:10.37,2013-03-17 11:53:00,
2013-03-17 04:58:00,54.8,51.0,29.95,SE,133,2.3,2.3,87,0.00,CLR,,0.00,0.0,WeatherDisplay:10.37,2013-03-17 11:58:00,
2013-03-17 05:03:00,54.8,51.0,29.95,SE,133,2.3,2.3,87,0.00,CLR,,0.00,0.0,WeatherDisplay:10.37,2013-03-17 12:03:00,
2013-03-17 05:08:00,54.8,51.0,29.95,SE,133,1.1,1.1,87,0.00,CLR,,0.00,0.0,WeatherDisplay:10.37,2013-03-17 12:08:00,
2013-03-17 05:13:00,54.9,50.8,29.95,SE,134,3.5,3.5,86,0.00,CLR,,0.00,0.0,WeatherDisplay:10.37,2013-03-17 12:13:00,
2013-03-17 05:18:00,54.9,50.8,29.95,SE,134,3.5,3.5,86,0.00,CLR,,0.00,0.0,WeatherDisplay:10.37,2013-03-17 12:18:00,
2013-03-17 05:23:00,54.9,50.8,29.95,SE,136,3.5,3.5,86,0.00,CLR,,0.00,0.0,WeatherDisplay:10.37,2013-03-17 12:23:00,
2013-03-17 05:28:00,54.9,50.8,29.95,SSE,167,2.3,2.3,86,0.00,CLR,,0.00,0.0,WeatherDisplay:10.37,2013-03-17 12:28:00,
2013-03-17 05:33:00,54.9,50.8,29.96,SSE,167,3.5,3.5,86,0.00,CLR,,0.00,0.0,WeatherDisplay:10.37,2013-03-17 12:33:00,
2013-03-17 05:38:00,55.0,50.6,29.96,SSE,167,2.3,2.3,85,0.00,CLR,,0.00,0.0,WeatherDisplay:10.37,2013-03-17 12:38:00,
2013-03-17 05:43:00,55.1,51.0,29.96,South,191,3.5,3.5,86,0.00,CLR,,0.00,0.0,WeatherDisplay:10.37,2013-03-17 12:43:00,
2013-03-17 05:48:00,55.1,50.7,29.95,South,191,1.1,1.1,85,0.00,CLR,,0.00,0.0,WeatherDisplay:10.37,2013-03-17 12:48:00,
2013-03-17 05:53:00,55.1,50.7,29.96,South,189,3.5,3.5,85,0.00,CLR,,0.00,0.0,WeatherDisplay:10.37,2013-03-17 12:53:00,
2013-03-17 05:58:00,55.1,50.7,29.96,South,182,3.5,3.5,85,0.00,CLR,,0.00,0.0,WeatherDisplay:10.37,2013-03-17 12:58:00,
2013-03-17 06:03:00,55.1,50.7,29.96,South,178,3.5,3.5,85,0.00,CLR,,0.00,0.0,WeatherDisplay:10.37,2013-03-17 13:03:00,
2013-03-17 06:08:00,55.1,50.7,29.96,SSE,161,3.5,3.5,85,0.00,CLR,,0.00,0.0,WeatherDisplay:10.37,2013-03-17 13:08:00,
2013-03-17 06:13:00,55.0,50.9,29.96,SSE,161,3.5,3.5,86,0.00,CLR,,0.00,0.0,WeatherDisplay:10.37,2013-03-17 13:13:00,
2013-03-17 06:18:00,54.9,50.8,29.97,SSE,163,3.5,3.5,86,0.00,CLR,,0.00,0.0,WeatherDisplay:10.37,2013-03-17 13:18:00,
2013-03-17 06:23:00,54.9,50.8,29.97,SSE,161,3.5,3.5,86,0.00,CLR,,0.00,0.0,WeatherDisplay:10.37,2013-03-17 13:23:00,
2013-03-17 06:28:00,54.8,50.7,29.97,SSE,158,3.5,3.5,86,0.00,CLR,,0.00,0.0,WeatherDisplay:10.37,2013-03-17 13:28:00,
2013-03-17 06:33:00,54.8,50.7,29.96,SSE,158,2.3,2.3,86,0.00,CLR,,0.00,0.0,WeatherDisplay:10.37,2013-03-17 13:33:00,
2013-03-17 06:38:00,54.8,50.7,29.97,SSE,165,2.3,2.3,86,0.00,CLR,,0.00,0.0,WeatherDisplay:10.37,2013-03-17 13:38:00,
2013-03-17 06:43:00,54.7,50.6,29.97,SSE,165,1.1,1.1,86,0.00,CLR,,0.00,0.0,WeatherDisplay:10.37,2013-03-17 13:43:00,
2013-03-17 06:48:00,54.7,50.6,29.97,SSE,165,0.0,0.0,86,0.00,CLR,,0.00,0.0,WeatherDisplay:10.37,2013-03-17 13:48:00,
2013-03-17 06:53:00,54.7,50.6,29.97,SSE,165,3.5,3.5,86,0.00,CLR,,0.00,0.0,WeatherDisplay:10.37,2013-03-17 13:53:00,
2013-03-17 06:58:00,54.6,50.5,29.97,SSE,165,2.0,2.0,86,0.00,CLR,,0.00,0.0,WeatherDisplay:10.37,2013-03-17 13:58:00,
2013-03-17 07:03:00,54.6,50.8,29.97,SSE,165,1.1,0.0,87,0.00,CLR,,0.00,5.0,WeatherDisplay:10.37,2013-03-17 14:03:00,
2013-03-17 07:08:00,54.6,50.5,29.98,SSE,165,1.1,0.0,86,0.00,BKN,,0.00,5.0,WeatherDisplay:10.37,2013-03-17 14:08:00,
2013-03-17 07:13:00,54.6,50.5,29.97,SSE,165,1.1,1.1,86,0.00,BKN,,0.00,11.0,WeatherDisplay:10.37,2013-03-17 14:13:00,
2013-03-17 07:18:00,54.6,50.5,29.97,SSE,165,0.0,0.0,86,0.00,BKN,,0.00,16.0,WeatherDisplay:10.37,2013-03-17 14:18:00,
2013-03-17 07:23:00,54.6,50.8,29.97,SSE,165,0.0,0.0,87,0.00,BKN,,0.00,21.0,WeatherDisplay:10.37,2013-03-17 14:23:00,
2013-03-17 07:28:00,54.6,50.5,29.98,SSE,165,0.0,0.0,86,0.00,BKN,,0.00,30.0,WeatherDisplay:10.37,2013-03-17 14:28:00,
2013-03-17 07:33:00,54.7,50.9,29.98,SSE,165,1.0,0.0,87,0.00,BKN,,0.00,37.0,WeatherDisplay:10.37,2013-03-17 14:33:00,
2013-03-17 07:38:00,54.8,50.7,29.98,SSE,165,2.3,2.3,86,0.00,BKN,,0.00,33.0,WeatherDisplay:10.37,2013-03-17 14:38:00,
2013-03-17 07:43:00,54.9,50.8,29.98,SSE,160,1.0,1.0,86,0.00,BKN,,0.00,44.0,WeatherDisplay:10.37,2013-03-17 14:43:00,
2013-03-17 07:48:00,55.0,50.9,29.98,SSE,158,3.5,3.5,86,0.00,SCT,,0.00,77.0,WeatherDisplay:10.37,2013-03-17 14:48:00,
2013-03-17 07:53:00,55.1,51.0,29.98,SSE,159,3.5,3.5,86,0.00,SCT,,0.00,72.0,WeatherDisplay:10.37,2013-03-17 14:53:00,
2013-03-17 07:58:00,55.3,51.2,29.98,SSE,159,2.3,2.3,86,0.00,SCT,,0.00,98.0,WeatherDisplay:10.37,2013-03-17 14:58:00,
2013-03-17 08:03:00,55.5,51.1,29.98,SSE,159,2.3,2.3,85,0.00,FEW,,0.00,128.0,WeatherDisplay:10.37,2013-03-17 15:03:00,
2013-03-17 08:08:00,55.7,51.3,29.98,SSE,155,1.1,1.1,85,0.00,SCT,,0.00,123.0,WeatherDisplay:10.37,2013-03-17 15:08:00,
2013-03-17 08:13:00,56.0,51.2,29.98,SSE,150,2.3,2.3,84,0.00,FEW,,0.00,141.0,WeatherDisplay:10.37,2013-03-17 15:13:00,
2013-03-17 08:18:00,56.3,51.2,29.99,SSE,149,2.3,2.3,83,0.00,CLR,,0.00,190.0,WeatherDisplay:10.37,2013-03-17 15:18:00,
2013-03-17 08:23:00,56.6,51.5,29.98,SSE,149,1.1,0.0,83,0.00,CLR,,0.00,239.0,WeatherDisplay:10.37,2013-03-17 15:23:00,
2013-03-17 08:28:00,56.9,51.1,29.99,SSE,150,4.0,4.0,81,0.00,CLR,,0.00,287.0,WeatherDisplay:10.37,2013-03-17 15:28:00,
2013-03-17 08:33:00,56.9,51.1,29.99,SE,146,3.5,3.5,81,0.00,CLR,,0.00,207.0,WeatherDisplay:10.37,2013-03-17 15:33:00,
2013-03-17 08:38:00,56.8,51.0,29.99,SE,138,5.0,5.0,81,0.00,FEW,,0.00,190.0,WeatherDisplay:10.37,2013-03-17 15:38:00,
2013-03-17 08:43:00,56.7,50.9,29.99,ESE,123,1.1,0.0,81,0.00,BKN,,0.00,104.0,WeatherDisplay:10.37,2013-03-17 15:43:00,
2013-03-17 08:48:00,56.7,50.9,29.99,ESE,119,3.5,3.5,81,0.00,BKN,,0.00,160.0,WeatherDisplay:10.37,2013-03-17 15:48:00,
2013-03-17 08:53:00,56.7,50.9,29.98,South,178,2.3,0.0,81,0.00,BKN,,0.00,135.0,WeatherDisplay:10.37,2013-03-17 15:53:00,
2013-03-17 08:58:00,56.8,51.0,29.99,South,180,2.0,2.0,81,0.00,BKN,,0.00,171.0,WeatherDisplay:10.37,2013-03-17 15:58:00,
2013-03-17 09:03:00,57.1,51.0,29.99,SE,140,3.5,3.5,80,0.00,CLR,,0.00,346.0,WeatherDisplay:10.37,2013-03-17 16:03:00,
2013-03-17 09:08:00,57.5,51.4,29.99,SSE,149,1.1,0.0,80,0.00,CLR,,0.00,352.0,WeatherDisplay:10.37,2013-03-17 16:08:00,
2013-03-17 09:13:00,58.2,51.4,29.99,SE,141,5.0,5.0,78,0.00,CLR,,0.00,209.0,WeatherDisplay:10.37,2013-03-17 16:13:00,
2013-03-17 09:18:00,57.8,51.3,29.99,SSE,163,5.8,5.8,79,0.00,SCT,,0.00,288.0,WeatherDisplay:10.37,2013-03-17 16:18:00,
2013-03-17 09:23:00,57.7,51.2,29.99,SSW,207,5.0,5.0,79,0.00,CLR,,0.00,413.0,WeatherDisplay:10.37,2013-03-17 16:23:00,
2013-03-17 09:28:00,57.6,51.1,29.99,South,184,2.3,2.3,79,0.00,CLR,,0.00,371.0,WeatherDisplay:10.37,2013-03-17 16:28:00,
2013-03-17 09:33:00,57.7,51.2,29.99,SSE,165,6.0,6.0,79,0.00,SCT,,0.00,229.0,WeatherDisplay:10.37,2013-03-17 16:33:00,
2013-03-17 09:38:00,57.7,51.2,29.99,SW,215,4.0,4.0,79,0.00,BKN,,0.00,188.0,WeatherDisplay:10.37,2013-03-17 16:38:00,
2013-03-17 09:43:00,57.7,50.9,30.00,South,182,3.5,3.5,78,0.00,BKN,,0.00,204.0,WeatherDisplay:10.37,2013-03-17 16:43:00,
2013-03-17 09:48:00,57.9,51.4,30.00,South,188,4.0,4.0,79,0.00,CLR,,0.00,454.0,WeatherDisplay:10.37,2013-03-17 16:48:00,
2013-03-17 09:53:00,58.1,51.3,30.00,SSE,158,6.0,6.0,78,0.00,BKN,,0.00,246.0,WeatherDisplay:10.37,2013-03-17 16:53:00,
2013-03-17 09:58:00,58.1,51.3,30.00,SW,215,6.0,6.0,78,0.00,BKN,,0.00,253.0,WeatherDisplay:10.37,2013-03-17 16:58:00,
2013-03-17 10:03:00,57.9,51.1,30.00,SW,229,6.9,6.9,78,0.00,SCT,,0.00,315.0,WeatherDisplay:10.37,2013-03-17 17:03:00,
2013-03-17 10:08:00,57.9,51.4,30.00,SSE,163,4.6,4.6,79,0.00,SCT,,0.00,359.0,WeatherDisplay:10.37,2013-03-17 17:08:00,
2013-03-17 10:13:00,58.3,51.5,30.01,SSE,167,7.0,7.0,78,0.00,CLR,,0.00,663.0,WeatherDisplay:10.37,2013-03-17 17:13:00,
2013-03-17 10:18:00,58.8,51.6,30.01,South,184,4.0,4.0,77,0.00,CLR,,0.00,504.0,WeatherDisplay:10.37,2013-03-17 17:18:00,
2013-03-17 10:23:00,59.3,51.4,30.01,ESE,110,7.0,7.0,75,0.00,CLR,,0.00,696.0,WeatherDisplay:10.37,2013-03-17 17:23:00,
2013-03-17 10:28:00,59.8,51.5,30.01,SSW,202,3.5,3.5,74,0.00,CLR,,0.00,643.0,WeatherDisplay:10.37,2013-03-17 17:28:00,
2013-03-17 10:33:00,59.8,51.5,30.00,SSW,198,5.0,5.0,74,0.00,CLR,,0.00,636.0,WeatherDisplay:10.37,2013-03-17 17:33:00,
2013-03-17 10:38:00,59.8,51.1,30.00,WNW,298,3.5,3.5,73,0.00,CLR,,0.00,654.0,WeatherDisplay:10.37,2013-03-17 17:38:00,
2013-03-17 10:43:00,60.0,51.3,30.01,South,184,5.8,5.8,73,0.00,CLR,,0.00,691.0,WeatherDisplay:10.37,2013-03-17 17:43:00,
2013-03-17 10:48:00,60.4,51.3,30.01,East,96,3.5,3.5,72,0.00,FEW,,0.00,682.0,WeatherDisplay:10.37,2013-03-17 17:48:00,
2013-03-17 10:53:00,60.7,51.6,30.01,SW,233,3.5,3.5,72,0.00,SCT,,0.00,394.0,WeatherDisplay:10.37,2013-03-17 17:53:00,
2013-03-17 10:58:00,60.8,51.3,30.01,SSE,161,3.5,3.5,71,0.00,CLR,,0.00,721.0,WeatherDisplay:10.37,2013-03-17 17:58:00,
2013-03-17 11:03:00,61.3,51.8,30.00,SE,127,3.5,3.5,71,0.00,SCT,,0.00,745.0,WeatherDisplay:10.37,2013-03-17 18:03:00,
2013-03-17 11:08:00,62.0,52.1,30.01,SSW,197,5.0,5.0,70,0.00,CLR,,0.00,647.0,WeatherDisplay:10.37,2013-03-17 18:08:00,
2013-03-17 11:13:00,61.9,51.6,30.01,SSE,162,4.6,4.6,69,0.00,FEW,,0.00,742.0,WeatherDisplay:10.37,2013-03-17 18:13:00,
2013-03-17 11:18:00,61.8,51.5,30.01,South,176,6.9,6.9,69,0.00,CLR,,0.00,701.0,WeatherDisplay:10.37,2013-03-17 18:18:00,
2013-03-17 11:23:00,61.8,51.9,30.01,SW,229,5.8,5.8,70,0.00,CLR,,0.00,749.0,WeatherDisplay:10.37,2013-03-17 18:23:00,
2013-03-17 11:28:00,62.2,51.5,30.00,SW,215,4.0,4.0,68,0.00,CLR,,0.00,656.0,WeatherDisplay:10.37,2013-03-17 18:28:00,
2013-03-17 11:33:00,62.4,51.7,30.00,SSE,159,5.0,5.0,68,0.00,CLR,,0.00,707.0,WeatherDisplay:10.37,2013-03-17 18:33:00,
2013-03-17 11:38:00,62.5,51.8,30.00,WSW,250,4.0,4.0,68,0.00,CLR,,0.00,752.0,WeatherDisplay:10.37,2013-03-17 18:38:00,
2013-03-17 11:43:00,62.9,51.8,30.00,SSW,202,4.6,4.6,67,0.00,FEW,,0.00,673.0,WeatherDisplay:10.37,2013-03-17 18:43:00,
2013-03-17 11:48:00,63.4,51.8,30.00,SSE,151,5.8,5.8,66,0.00,CLR,,0.00,719.0,WeatherDisplay:10.37,2013-03-17 18:48:00,
2013-03-17 11:53:00,63.4,51.8,30.00,South,170,4.6,4.6,66,0.00,CLR,,0.00,661.0,WeatherDisplay:10.37,2013-03-17 18:53:00,
2013-03-17 11:58:00,64.0,52.0,30.00,SSW,198,6.0,6.0,65,0.00,SCT,,0.00,735.0,WeatherDisplay:10.37,2013-03-17 18:58:00,
2013-03-17 12:03:00,63.5,51.9,30.00,West,261,5.8,5.8,66,0.00,CLR,,0.00,802.0,WeatherDisplay:10.37,2013-03-17 19:03:00,
2013-03-17 12:08:00,63.7,52.1,30.00,SSW,194,5.8,5.8,66,0.00,CLR,,0.00,816.0,WeatherDisplay:10.37,2013-03-17 19:08:00,
2013-03-17 12:13:00,63.8,52.2,30.00,SSW,200,7.0,7.0,66,0.00,CLR,,0.00,812.0,WeatherDisplay:10.37,2013-03-17 19:13:00,
2013-03-17 12:18:00,64.3,52.7,30.00,SSW,199,5.8,5.8,66,0.00,CLR,,0.00,810.0,WeatherDisplay:10.37,2013-03-17 19:18:00,
2013-03-17 12:23:00,64.3,52.3,30.00,SSW,197,2.3,2.3,65,0.00,CLR,,0.00,800.0,WeatherDisplay:10.37,2013-03-17 19:23:00,
2013-03-17 12:28:00,64.5,52.5,29.99,SSW,200,5.8,5.8,65,0.00,CLR,,0.00,807.0,WeatherDisplay:10.37,2013-03-17 19:28:00,
2013-03-17 12:33:00,64.5,52.0,29.99,West,277,5.0,5.0,64,0.00,CLR,,0.00,803.0,WeatherDisplay:10.37,2013-03-17 19:33:00,
2013-03-17 12:38:00,64.5,52.5,29.99,NNW,342,3.5,3.5,65,0.00,CLR,,0.00,796.0,WeatherDisplay:10.37,2013-03-17 19:38:00,
2013-03-17 12:43:00,65.2,52.3,29.99,SE,143,8.1,8.1,63,0.00,CLR,,0.00,809.0,WeatherDisplay:10.37,2013-03-17 19:43:00,
2013-03-17 12:48:00,65.1,52.2,29.99,West,268,4.0,4.0,63,0.00,CLR,,0.00,802.0,WeatherDisplay:10.37,2013-03-17 19:48:00,
2013-03-17 12:53:00,65.5,52.6,29.99,WSW,244,8.1,8.1,63,0.00,CLR,,0.00,812.0,WeatherDisplay:10.37,2013-03-17 19:53:00,
2013-03-17 12:58:00,66.2,52.8,29.98,NNW,330,5.0,5.0,62,0.00,CLR,,0.00,809.0,WeatherDisplay:10.37,2013-03-17 19:58:00,
2013-03-17 13:03:00,66.7,52.8,29.98,SW,214,7.0,7.0,61,0.00,CLR,,0.00,812.0,WeatherDisplay:10.37,2013-03-17 20:03:00,
2013-03-17 13:08:00,66.7,52.4,29.98,South,175,6.9,6.9,60,0.00,CLR,,0.00,814.0,WeatherDisplay:10.37,2013-03-17 20:08:00,
2013-03-17 13:13:00,66.1,52.3,29.98,SW,215,7.0,7.0,61,0.00,CLR,,0.00,809.0,WeatherDisplay:10.37,2013-03-17 20:13:00,
2013-03-17 13:18:00,66.0,52.2,29.98,SSE,167,4.6,4.6,61,0.00,CLR,,0.00,789.0,WeatherDisplay:10.37,2013-03-17 20:18:00,
2013-03-17 13:24:00,66.3,52.0,29.97,WNW,285,6.9,6.9,60,0.00,CLR,,0.00,803.0,WeatherDisplay:10.37,2013-03-17 20:24:00,
2013-03-17 13:29:00,66.1,52.3,29.97,NNW,344,4.6,4.6,61,0.00,CLR,,0.00,802.0,WeatherDisplay:10.37,2013-03-17 20:29:00,
2013-03-17 13:34:00,66.8,52.5,29.97,West,280,6.0,6.0,60,0.00,CLR,,0.00,789.0,WeatherDisplay:10.37,2013-03-17 20:34:00,
2013-03-17 13:39:00,67.0,52.7,29.97,West,271,8.1,8.1,60,0.00,CLR,,0.00,788.0,WeatherDisplay:10.37,2013-03-17 20:39:00,
2013-03-17 13:44:00,66.8,52.0,29.96,West,267,6.9,6.9,59,0.00,CLR,,0.00,731.0,WeatherDisplay:10.37,2013-03-17 20:44:00,
2013-03-17 13:49:00,66.7,52.4,29.96,SSW,198,4.6,4.6,60,0.00,CLR,,0.00,773.0,WeatherDisplay:10.37,2013-03-17 20:49:00,
2013-03-17 13:54:00,67.0,52.7,29.95,South,187,11.5,11.5,60,0.00,CLR,,0.00,800.0,WeatherDisplay:10.37,2013-03-17 20:54:00,
2013-03-17 13:59:00,67.1,52.7,29.95,South,191,8.1,8.1,60,0.00,CLR,,0.00,803.0,WeatherDisplay:10.37,2013-03-17 20:59:00,
2013-03-17 14:04:00,67.8,53.4,29.95,SSW,205,9.2,9.2,60,0.00,CLR,,0.00,705.0,WeatherDisplay:10.37,2013-03-17 21:04:00,
2013-03-17 14:09:00,67.5,52.7,29.95,SSE,164,8.1,8.1,59,0.00,FEW,,0.00,705.0,WeatherDisplay:10.37,2013-03-17 21:09:00,
2013-03-17 14:14:00,67.6,52.8,29.95,SSW,200,9.2,9.2,59,0.00,CLR,,0.00,777.0,WeatherDisplay:10.37,2013-03-17 21:14:00,
2013-03-17 14:19:00,68.3,52.5,29.94,SSW,205,6.9,6.9,57,0.00,CLR,,0.00,712.0,WeatherDisplay:10.37,2013-03-17 21:19:00,
2013-03-17 14:24:00,67.7,52.9,29.94,SSW,203,11.5,11.5,59,0.00,CLR,,0.00,712.0,WeatherDisplay:10.37,2013-03-17 21:24:00,
2013-03-17 14:29:00,67.5,52.7,29.94,SSW,200,11.5,11.5,59,0.00,CLR,,0.00,756.0,WeatherDisplay:10.37,2013-03-17 21:29:00,
2013-03-17 14:34:00,67.6,52.8,29.94,SSW,204,10.4,10.4,59,0.00,SCT,,0.00,547.0,WeatherDisplay:10.37,2013-03-17 21:34:00,
2013-03-17 14:39:00,67.7,52.4,29.94,SSW,204,5.8,5.8,58,0.00,SCT,,0.00,411.0,WeatherDisplay:10.37,2013-03-17 21:39:00,
2013-03-17 14:44:00,67.5,52.2,29.94,SSW,202,7.0,7.0,58,0.00,SCT,,0.00,621.0,WeatherDisplay:10.37,2013-03-17 21:44:00,
2013-03-17 14:49:00,67.7,52.9,29.93,SSE,151,6.9,6.9,59,0.00,FEW,,0.00,554.0,WeatherDisplay:10.37,2013-03-17 21:49:00,
2013-03-17 14:54:00,67.8,52.9,29.93,SW,224,9.2,9.2,59,0.00,SCT,,0.00,564.0,WeatherDisplay:10.37,2013-03-17 21:54:00,
2013-03-17 14:59:00,67.9,53.0,29.93,SSW,197,7.0,7.0,59,0.00,CLR,,0.00,761.0,WeatherDisplay:10.37,2013-03-17 21:59:00,
2013-03-17 15:04:00,67.7,53.3,29.93,South,187,9.2,9.2,60,0.00,CLR,,0.00,696.0,WeatherDisplay:10.37,2013-03-17 22:04:00,
2013-03-17 15:09:00,67.5,52.7,29.93,SSW,202,12.0,12.0,59,0.00,CLR,,0.00,714.0,WeatherDisplay:10.37,2013-03-17 22:09:00,
2013-03-17 15:14:00,67.4,53.0,29.93,SSE,167,11.0,11.0,60,0.00,CLR,,0.00,636.0,WeatherDisplay:10.37,2013-03-17 22:14:00,
2013-03-17 15:19:00,67.4,53.5,29.93,SSW,201,7.0,7.0,61,0.00,CLR,,0.00,733.0,WeatherDisplay:10.37,2013-03-17 22:19:00,
2013-03-17 15:24:00,67.5,52.7,29.93,SSW,207,6.9,6.9,59,0.00,CLR,,0.00,642.0,WeatherDisplay:10.37,2013-03-17 22:24:00,
2013-03-17 15:29:00,67.5,52.7,29.93,South,173,11.5,11.5,59,0.00,CLR,,0.00,654.0,WeatherDisplay:10.37,2013-03-17 22:29:00,
2013-03-17 15:34:00,67.1,52.7,29.93,SSE,164,11.5,11.5,60,0.00,CLR,,0.00,596.0,WeatherDisplay:10.37,2013-03-17 22:34:00,
2013-03-17 15:39:00,67.4,52.6,29.93,SSW,205,9.2,9.2,59,0.00,CLR,,0.00,598.0,WeatherDisplay:10.37,2013-03-17 22:39:00,
2013-03-17 15:44:00,67.4,52.6,29.93,South,189,8.1,8.1,59,0.00,CLR,,0.00,584.0,WeatherDisplay:10.37,2013-03-17 22:44:00,
2013-03-17 15:49:00,67.6,52.8,29.93,South,179,9.2,9.2,59,0.00,CLR,,0.00,563.0,WeatherDisplay:10.37,2013-03-17 22:49:00,
2013-03-17 15:54:00,67.7,52.9,29.93,SSW,213,8.1,8.1,59,0.00,CLR,,0.00,545.0,WeatherDisplay:10.37,2013-03-17 22:54:00,
2013-03-17 15:59:00,67.7,52.9,29.93,SSW,203,8.1,8.1,59,0.00,CLR,,0.00,534.0,WeatherDisplay:10.37,2013-03-17 22:59:00,
2013-03-17 16:04:00,67.7,52.9,29.93,SSW,205,6.0,6.0,59,0.00,CLR,,0.00,515.0,WeatherDisplay:10.37,2013-03-17 23:04:00,
2013-03-17 16:09:00,67.7,52.9,29.93,SSW,194,9.2,9.2,59,0.00,CLR,,0.00,501.0,WeatherDisplay:10.37,2013-03-17 23:09:00,
2013-03-17 16:14:00,67.8,52.9,29.93,SE,136,5.8,5.8,59,0.00,CLR,,0.00,483.0,WeatherDisplay:10.37,2013-03-17 23:14:00,
2013-03-17 16:19:00,67.7,52.9,29.93,SSW,207,8.1,8.1,59,0.00,CLR,,0.00,476.0,WeatherDisplay:10.37,2013-03-17 23:19:00,
2013-03-17 16:24:00,67.6,52.8,29.93,SSW,206,7.0,7.0,59,0.00,CLR,,0.00,446.0,WeatherDisplay:10.37,2013-03-17 23:24:00,
2013-03-17 16:29:00,67.6,52.8,29.93,SSE,163,7.0,7.0,59,0.00,CLR,,0.00,436.0,WeatherDisplay:10.37,2013-03-17 23:29:00,
2013-03-17 16:34:00,67.4,52.6,29.93,SSW,207,11.5,11.5,59,0.00,CLR,,0.00,420.0,WeatherDisplay:10.37,2013-03-17 23:34:00,
2013-03-17 16:39:00,67.7,52.9,29.93,SSE,167,8.1,8.1,59,0.00,CLR,,0.00,401.0,WeatherDisplay:10.37,2013-03-17 23:39:00,
2013-03-17 16:44:00,67.6,52.3,29.93,SW,217,10.4,10.4,58,0.00,CLR,,0.00,390.0,WeatherDisplay:10.37,2013-03-17 23:44:00,
2013-03-17 16:49:00,67.6,52.3,29.93,SSW,209,10.4,10.4,58,0.00,CLR,,0.00,369.0,WeatherDisplay:10.37,2013-03-17 23:49:00,
2013-03-17 16:54:00,67.4,52.6,29.93,SSW,202,6.9,6.9,59,0.00,CLR,,0.00,353.0,WeatherDisplay:10.37,2013-03-17 23:54:00,
2013-03-17 16:59:00,67.6,52.3,29.93,SSW,206,6.9,6.9,58,0.00,CLR,,0.00,352.0,WeatherDisplay:10.37,2013-03-17 23:59:00,
2013-03-17 17:04:00,67.0,51.7,29.93,SW,232,11.5,11.5,58,0.00,CLR,,0.00,330.0,WeatherDisplay:10.37,2013-03-18 00:04:00,
2013-03-17 17:09:00,66.8,52.5,29.93,South,180,10.4,10.4,60,0.00,CLR,,0.00,315.0,WeatherDisplay:10.37,2013-03-18 00:09:00,
2013-03-17 17:14:00,66.6,52.3,29.93,SSE,155,10.4,10.4,60,0.00,CLR,,0.00,295.0,WeatherDisplay:10.37,2013-03-18 00:14:00,
2013-03-17 17:19:00,66.7,52.4,29.93,SSW,202,8.1,8.1,60,0.00,CLR,,0.00,279.0,WeatherDisplay:10.37,2013-03-18 00:19:00,
2013-03-17 17:24:00,66.6,52.3,29.93,SE,144,8.1,8.1,60,0.00,CLR,,0.00,264.0,WeatherDisplay:10.37,2013-03-18 00:24:00,
2013-03-17 17:29:00,66.0,52.2,29.93,SSE,162,10.4,10.4,61,0.00,CLR,,0.00,246.0,WeatherDisplay:10.37,2013-03-18 00:29:00,
2013-03-17 17:34:00,65.9,52.1,29.93,SW,217,7.0,7.0,61,0.00,CLR,,0.00,227.0,WeatherDisplay:10.37,2013-03-18 00:34:00,
2013-03-17 17:39:00,65.9,52.1,29.93,SSW,192,6.9,6.9,61,0.00,CLR,,0.00,209.0,WeatherDisplay:10.37,2013-03-18 00:39:00,
2013-03-17 17:44:00,65.8,52.0,29.93,South,185,7.0,7.0,61,0.00,CLR,,0.00,188.0,WeatherDisplay:10.37,2013-03-18 00:44:00,
2013-03-17 17:49:00,65.4,51.6,29.93,SSE,148,9.2,9.2,61,0.00,CLR,,0.00,162.0,WeatherDisplay:10.37,2013-03-18 00:49:00,
2013-03-17 17:54:00,65.0,51.7,29.93,South,169,6.9,6.9,62,0.00,FEW,,0.00,151.0,WeatherDisplay:10.37,2013-03-18 00:54:00,
2013-03-17 17:59:00,64.7,51.4,29.93,SSE,151,8.1,8.1,62,0.00,CLR,,0.00,139.0,WeatherDisplay:10.37,2013-03-18 00:59:00,
2013-03-17 18:04:00,64.1,51.7,29.94,SSE,150,8.1,8.1,64,0.00,FEW,,0.00,120.0,WeatherDisplay:10.37,2013-03-18 01:04:00,
2013-03-17 18:09:00,63.9,51.5,29.94,SSE,155,6.9,6.9,64,0.00,FEW,,0.00,109.0,WeatherDisplay:10.37,2013-03-18 01:09:00,
2013-03-17 18:14:00,63.5,51.1,29.94,SE,144,9.2,9.2,64,0.00,FEW,,0.00,86.0,WeatherDisplay:10.37,2013-03-18 01:14:00,
2013-03-17 18:19:00,63.3,51.3,29.94,South,169,9.2,9.2,65,0.00,SCT,,0.00,63.0,WeatherDisplay:10.37,2013-03-18 01:19:00,
2013-03-17 18:24:00,63.2,51.6,29.94,SSW,198,8.1,8.1,66,0.00,SCT,,0.00,56.0,WeatherDisplay:10.37,2013-03-18 01:24:00,
2013-03-17 18:29:00,63.3,51.7,29.94,SSE,167,4.6,4.6,66,0.00,SCT,,0.00,47.0,WeatherDisplay:10.37,2013-03-18 01:29:00,
2013-03-17 18:34:00,63.1,51.6,29.95,SSE,167,5.0,5.0,66,0.00,SCT,,0.00,37.0,WeatherDisplay:10.37,2013-03-18 01:34:00,
2013-03-17 18:39:00,62.6,51.9,29.95,South,181,9.2,9.2,68,0.00,BKN,,0.00,23.0,WeatherDisplay:10.37,2013-03-18 01:39:00,
2013-03-17 18:44:00,61.8,51.5,29.95,SSE,161,11.5,11.5,69,0.00,BKN,,0.00,16.0,WeatherDisplay:10.37,2013-03-18 01:44:00,
2013-03-17 18:49:00,61.3,51.4,29.95,South,176,9.2,9.2,70,0.00,BKN,,0.00,9.0,WeatherDisplay:10.37,2013-03-18 01:49:00,
2013-03-17 18:54:00,61.0,51.5,29.95,South,171,9.2,9.2,71,0.00,BKN,,0.00,7.0,WeatherDisplay:10.37,2013-03-18 01:54:00,
2013-03-17 18:59:00,60.7,52.0,29.95,South,188,8.1,8.1,73,0.00,CLR,,0.00,0.0,WeatherDisplay:10.37,2013-03-18 01:59:00,
2013-03-17 19:04:00,60.8,51.7,29.96,SSW,201,5.8,5.8,72,0.00,CLR,,0.00,0.0,WeatherDisplay:10.37,2013-03-18 02:04:00,
2013-03-17 19:09:00,60.6,51.9,29.95,SSW,192,8.1,8.1,73,0.00,CLR,,0.00,0.0,WeatherDisplay:10.37,2013-03-18 02:09:00,
2013-03-17 19:14:00,60.3,52.0,29.95,South,171,6.0,6.0,74,0.00,CLR,,0.00,0.0,WeatherDisplay:10.37,2013-03-18 02:14:00,
2013-03-17 19:19:00,59.8,51.9,29.95,SSE,159,6.9,6.9,75,0.00,CLR,,0.00,0.0,WeatherDisplay:10.37,2013-03-18 02:19:00,
2013-03-17 19:24:00,59.4,52.2,29.95,SSE,162,7.0,7.0,77,0.00,CLR,,0.00,0.0,WeatherDisplay:10.37,2013-03-18 02:24:00,
2013-03-17 19:29:00,59.2,52.0,29.95,SE,141,8.1,8.1,77,0.00,CLR,,0.00,0.0,WeatherDisplay:10.37,2013-03-18 02:29:00,
2013-03-17 19:34:00,59.0,52.1,29.96,SSW,192,5.8,5.8,78,0.00,CLR,,0.00,0.0,WeatherDisplay:10.37,2013-03-18 02:34:00,
2013-03-17 19:39:00,59.0,52.1,29.96,SSW,208,5.0,5.0,78,0.00,CLR,,0.00,0.0,WeatherDisplay:10.37,2013-03-18 02:39:00,
2013-03-17 19:44:00,58.8,52.0,29.96,SSE,149,4.6,4.6,78,0.00,CLR,,0.00,0.0,WeatherDisplay:10.37,2013-03-18 02:44:00,
2013-03-17 19:49:00,58.5,52.0,29.97,South,180,5.8,5.8,79,0.00,CLR,,0.00,0.0,WeatherDisplay:10.37,2013-03-18 02:49:00,
2013-03-17 19:54:00,58.2,51.7,29.96,SSE,165,7.0,7.0,79,0.00,CLR,,0.00,0.0,WeatherDisplay:10.37,2013-03-18 02:54:00,
2013-03-17 19:59:00,58.0,51.9,29.96,South,190,4.6,4.6,80,0.00,CLR,,0.00,0.0,WeatherDisplay:10.37,2013-03-18 02:59:00,
2013-03-17 20:04:00,57.9,51.8,29.96,SSE,152,4.6,4.6,80,0.00,CLR,,0.00,0.0,WeatherDisplay:10.37,2013-03-18 03:04:00,
2013-03-17 20:09:00,57.8,51.7,29.97,South,188,5.0,5.0,80,0.00,CLR,,0.00,0.0,WeatherDisplay:10.37,2013-03-18 03:09:00,
2013-03-17 20:14:00,57.7,51.9,29.97,SSW,203,6.9,6.9,81,0.00,CLR,,0.00,0.0,WeatherDisplay:10.37,2013-03-18 03:14:00,
2013-03-17 20:19:00,57.7,51.9,29.96,SSE,163,4.6,4.6,81,0.00,CLR,,0.00,0.0,WeatherDisplay:10.37,2013-03-18 03:19:00,
2013-03-17 20:24:00,57.5,51.7,29.96,SE,144,4.6,4.6,81,0.00,CLR,,0.00,0.0,WeatherDisplay:10.37,2013-03-18 03:24:00,
2013-03-17 20:29:00,57.4,51.9,29.96,SSE,149,3.5,3.5,82,0.00,CLR,,0.00,0.0,WeatherDisplay:10.37,2013-03-18 03:29:00,
2013-03-17 20:34:00,57.3,51.9,29.96,South,169,5.0,5.0,82,0.00,CLR,,0.00,0.0,WeatherDisplay:10.37,2013-03-18 03:34:00,
2013-03-17 20:39:00,57.2,52.1,29.97,SSE,163,4.6,4.6,83,0.00,CLR,,0.00,0.0,WeatherDisplay:10.37,2013-03-18 03:39:00,
2013-03-17 20:44:00,57.1,52.0,29.97,South,171,5.0,5.0,83,0.00,CLR,,0.00,0.0,WeatherDisplay:10.37,2013-03-18 03:44:00,
2013-03-17 20:49:00,56.9,52.1,29.97,SSE,155,5.0,5.0,84,0.00,CLR,,0.00,0.0,WeatherDisplay:10.37,2013-03-18 03:49:00,
2013-03-17 20:54:00,56.8,52.0,29.97,SSE,165,4.6,4.6,84,0.00,CLR,,0.00,0.0,WeatherDisplay:10.37,2013-03-18 03:54:00,
2013-03-17 20:59:00,56.8,52.0,29.97,SSE,163,3.5,3.5,84,0.00,CLR,,0.00,0.0,WeatherDisplay:10.37,2013-03-18 03:59:00,
2013-03-17 21:00:00,56.8,52.0,29.97,SSE,163,3.5,3.5,84,0.00,CLR,,0.00,0.0,WeatherDisplay:10.37,2013-03-18 04:00:00,
2013-03-17 21:01:00,56.8,52.0,29.97,South,175,4.0,4.0,84,0.00,CLR,,0.00,0.0,WeatherDisplay:10.37,2013-03-18 04:01:00,
2013-03-17 21:06:00,56.8,52.3,29.97,South,183,3.5,3.5,85,0.00,CLR,,0.00,0.0,WeatherDisplay:10.37,2013-03-18 04:06:00,
2013-03-17 21:11:00,56.8,52.0,29.97,South,171,5.0,5.0,84,0.00,CLR,,0.00,0.0,WeatherDisplay:10.37,2013-03-18 04:11:00,
2013-03-17 21:17:00,56.8,52.0,29.97,South,182,5.8,5.8,84,0.00,CLR,,0.00,0.0,WeatherDisplay:10.37,2013-03-18 04:17:00,
2013-03-17 21:22:00,56.8,52.3,29.98,South,175,5.8,5.8,85,0.00,CLR,,0.00,0.0,WeatherDisplay:10.37,2013-03-18 04:22:00,
2013-03-17 21:27:00,56.9,52.4,29.98,South,184,4.6,4.6,85,0.00,CLR,,0.00,0.0,WeatherDisplay:10.37,2013-03-18 04:27:00,
2013-03-17 21:32:00,56.9,52.4,29.98,SSW,205,4.0,4.0,85,0.00,CLR,,0.00,0.0,WeatherDisplay:10.37,2013-03-18 04:32:00,
2013-03-17 21:37:00,56.9,52.4,29.98,South,182,5.8,5.8,85,0.00,CLR,,0.00,0.0,WeatherDisplay:10.37,2013-03-18 04:37:00,
2013-03-17 21:42:00,56.8,52.0,29.98,SSE,165,6.0,6.0,84,0.00,CLR,,0.00,0.0,WeatherDisplay:10.37,2013-03-18 04:42:00,
2013-03-17 21:47:00,56.9,52.4,29.99,South,169,4.6,4.6,85,0.00,CLR,,0.00,0.0,WeatherDisplay:10.37,2013-03-18 04:47:00,
2013-03-17 21:52:00,57.0,52.2,29.99,SSW,201,6.0,6.0,84,0.00,CLR,,0.00,0.0,WeatherDisplay:10.37,2013-03-18 04:52:00,
2013-03-17 21:57:00,56.9,52.1,29.98,SSE,151,4.6,4.6,84,0.00,CLR,,0.00,0.0,WeatherDisplay:10.37,2013-03-18 04:57:00,
2013-03-17 22:02:00,56.9,52.4,29.98,South,173,5.8,5.8,85,0.00,CLR,,0.00,0.0,WeatherDisplay:10.37,2013-03-18 05:02:00,
2013-03-17 22:07:00,56.9,52.1,29.98,South,175,5.8,5.8,84,0.00,CLR,,0.00,0.0,WeatherDisplay:10.37,2013-03-18 05:07:00,
2013-03-17 22:12:00,56.9,52.1,29.98,SSE,162,5.0,5.0,84,0.00,CLR,,0.00,0.0,WeatherDisplay:10.37,2013-03-18 05:12:00,
2013-03-17 22:17:00,56.9,52.1,29.98,South,178,3.5,3.5,84,0.00,CLR,,0.00,0.0,WeatherDisplay:10.37,2013-03-18 05:17:00,
2013-03-17 22:22:00,56.9,52.1,29.98,SSE,163,4.0,4.0,84,0.00,CLR,,0.00,0.0,WeatherDisplay:10.37,2013-03-18 05:22:00,
2013-03-17 22:27:00,56.9,52.1,29.99,South,176,6.0,6.0,84,0.00,CLR,,0.00,0.0,WeatherDisplay:10.37,2013-03-18 05:27:00,
2013-03-17 22:32:00,56.9,52.4,29.99,SSE,168,4.0,4.0,85,0.00,CLR,,0.00,0.0,WeatherDisplay:10.37,2013-03-18 05:32:00,
2013-03-17 22:37:00,57.0,52.5,29.99,SSE,155,4.6,4.6,85,0.00,CLR,,0.00,0.0,WeatherDisplay:10.37,2013-03-18 05:37:00,
2013-03-17 22:42:00,57.0,52.2,29.99,SSE,153,6.9,6.9,84,0.00,CLR,,0.00,0.0,WeatherDisplay:10.37,2013-03-18 05:42:00,
2013-03-17 22:47:00,57.0,52.2,29.99,ESE,117,5.8,5.8,84,0.00,CLR,,0.00,0.0,WeatherDisplay:10.37,2013-03-18 05:47:00,
2013-03-17 22:52:00,57.1,52.3,29.99,SE,128,5.8,5.8,84,0.00,CLR,,0.00,0.0,WeatherDisplay:10.37,2013-03-18 05:52:00,
2013-03-17 22:57:00,57.0,52.2,29.99,SE,129,3.5,3.5,84,0.00,CLR,,0.00,0.0,WeatherDisplay:10.37,2013-03-18 05:57:00,
2013-03-17 23:02:00,57.0,52.2,30.00,SSE,162,6.0,6.0,84,0.00,CLR,,0.00,0.0,WeatherDisplay:10.37,2013-03-18 06:02:00,
2013-03-17 23:07:00,57.0,52.2,30.00,SE,145,6.0,6.0,84,0.00,CLR,,0.00,0.0,WeatherDisplay:10.37,2013-03-18 06:07:00,
2013-03-17 23:12:00,57.1,52.3,29.99,SE,145,4.6,4.6,84,0.00,CLR,,0.00,0.0,WeatherDisplay:10.37,2013-03-18 06:12:00,
2013-03-17 23:17:00,57.1,52.3,29.99,ESE,121,6.9,6.9,84,0.00,CLR,,0.00,0.0,WeatherDisplay:10.37,2013-03-18 06:17:00,
2013-03-17 23:22:00,57.0,52.2,29.99,SE,144,4.6,4.6,84,0.00,CLR,,0.00,0.0,WeatherDisplay:10.37,2013-03-18 06:22:00,
2013-03-17 23:27:00,57.0,52.2,30.00,SE,141,6.9,6.9,84,0.00,CLR,,0.00,0.0,WeatherDisplay:10.37,2013-03-18 06:27:00,
2013-03-17 23:32:00,57.1,52.3,30.00,SE,130,3.5,3.5,84,0.00,CLR,,0.00,0.0,WeatherDisplay:10.37,2013-03-18 06:32:00,
2013-03-17 23:37:00,57.0,52.2,30.00,East,96,3.5,3.5,84,0.00,CLR,,0.00,0.0,WeatherDisplay:10.37,2013-03-18 06:37:00,
2013-03-17 23:42:00,57.0,52.2,30.00,ESE,111,5.0,5.0,84,0.00,CLR,,0.00,0.0,WeatherDisplay:10.37,2013-03-18 06:42:00,
2013-03-17 23:47:00,56.9,52.1,30.00,ESE,115,3.5,3.5,84,0.00,CLR,,0.00,0.0,WeatherDisplay:10.37,2013-03-18 06:47:00,
2013-03-17 23:52:00,56.9,52.1,30.00,SE,146,4.6,4.6,84,0.00,CLR,,0.00,0.0,WeatherDisplay:10.37,2013-03-18 06:52:00,
2013-03-17 23:57:00,56.9,52.1,30.00,SE,130,5.0,5.0,84,0.00,CLR,,0.00,0.0,WeatherDisplay:10.37,2013-03-18 06:57:00,